FW3809 Weather Reports


Display with metric or nautical units.
time (UTC)temp
F
wind
direction
speed
MPH
gust
MPH
rain 1hr
in
rain 24hr
in
rain mn
in
humidity
%
barometer
mb
20260502191242 76 339 9.0 18.0 0.00 0.94 0.00 52 1019.2
20260502191008 76 354 10.0 18.0 0.00 0.94 0.00 52 1019.1
20260502190217 76 19 10.0 18.0 0.00 0.94 0.00 49 1019.1
20260502185647 76 14 10.0 18.0 0.00 0.95 0.00 51 1019.2
20260502185119 76 41 9.0 18.0 0.00 1.01 0.00 50 1019.3
20260502184853 77 27 8.0 18.0 0.00 1.28 0.00 51 1019.3
20260502184049 76 12 8.0 17.0 0.00 1.37 0.00 52 1019.4
20260502183551 76 34 7.0 17.0 0.00 1.37 0.00 51 1019.4
20260502183019 76 345 7.0 17.0 0.00 1.38 0.00 53 1019.4
20260502182516 76 341 7.0 17.0 0.00 1.41 0.00 51 1019.5
20260502182017 76 15 7.0 17.0 0.00 1.48 0.00 52 1019.7
20260502181510 75 12 7.0 17.0 0.00 1.61 0.00 53 1019.7
20260502180953 74 30 8.0 17.0 0.00 1.70 0.00 53 1019.8
20260502180423 74 11 10.0 24.0 0.00 1.73 0.00 53 1019.9
20260502180418 74 51 10.0 17.0 0.00 1.73 0.00 53 1019.9
20260502170124 72 345 10.0 20.0 0.00 1.80 0.00 61 1020.2
20260502164033 71 55 8.0 17.0 0.00 1.80 0.00 63 1020.1
20260502163737 71 12 10.0 17.0 0.00 1.81 0.00 65 1020.2
20260502163218 71 4 10.0 21.0 0.00 1.83 0.00 64 1020.2
20260502162421 70 43 9.0 21.0 0.00 1.91 0.00 63 1020.2
20260502162148 70 354 9.0 17.0 0.00 1.95 0.00 66 1020.1
20260502161625 70 354 8.0 18.0 0.00 1.98 0.00 67 1020.2
20260502160852 70 4 8.0 19.0 0.00 2.02 0.00 67 1020.1
20260502160622 70 338 9.0 19.0 0.00 2.06 0.00 67 1020.0
20260502152257 67 4 8.0 16.0 0.00 2.07 0.00 76 1020.0
20260502152011 66 23 7.0 15.0 0.00 2.07 0.00 76 1020.0
20260502151511 66 4 8.0 18.0 0.00 2.07 0.00 77 1020.0
20260502151314 65 48 8.0 18.0 0.00 2.07 0.00 77 1020.0
20260502150451 65 354 7.0 16.0 0.00 2.07 0.00 79 1020.0
20260502130743 57 4 4.0 12.0 0.00 2.14 0.00 95 1018.7
20260502130240 56 22 5.0 12.0 0.00 2.15 0.00 95 1018.7
20260502123621 55 37 4.0 11.0 0.00 2.15 0.00 97 1018.4
20260502123028 55 17 4.0 10.0 0.00 2.15 0.00 97 1018.2
20260502122501 54 349 4.0 11.0 0.00 2.16 0.00 97 1018.1
20260502121934 54 13 5.0 11.0 0.00 2.16 0.00 97 1018.0
20260502121431 54 16 5.0 10.0 0.00 2.16 0.00 97 1018.0
20260502120909 53 11 4.0 9.0 0.00 2.16 0.00 97 1018.0
20260502120402 53 4 3.0 8.0 0.00 2.16 0.00 97 1018.2
20260502115834 53 4 3.0 8.0 0.00 2.16 0.00 97 1018.0
20260502115334 53 23 3.0 8.0 0.00 2.16 0.00 96 1018.0
20260502114811 53 359 2.0 8.0 0.00 2.16 0.00 96 1018.0
20260502114300 53 15 1.0 6.0 0.00 2.16 0.00 96 1018.0
20260502113757 53 15 3.0 8.0 0.00 2.16 0.00 96 1017.8
20260502113232 53 14 3.0 8.0 0.00 2.16 0.00 96 1017.8
20260502112704 53 23 3.0 10.0 0.00 2.16 0.00 96 1017.7
20260502112433 53 348 4.0 10.0 0.00 2.16 0.00 96 1017.5
20260502112314 53 4 4.0 10.0 0.00 2.16 0.00 96 1017.5
20260502111153 53 18 5.0 11.0 0.00 2.16 0.00 96 1017.4
20260502110627 53 354 5.0 11.0 0.00 2.16 0.00 96 1017.3
20260502110123 54 30 4.0 10.0 0.00 2.17 0.00 96 1017.3
20260502105556 54 22 3.0 10.0 0.00 2.17 0.00 96 1017.2
20260502105055 54 10 3.0 7.0 0.00 2.17 0.00 96 1017.2
20260502104528 54 8 4.0 10.0 0.00 2.17 0.00 96 1017.2
20260502104024 54 25 4.0 10.0 0.00 2.17 0.00 96 1017.1
20260502103458 54 17 4.0 10.0 0.00 2.17 0.00 96 1017.0
20260502102934 54 354 5.0 10.0 0.00 2.18 0.00 95 1017.0
20260502102410 54 16 4.0 10.0 0.00 2.20 0.00 95 1017.0
20260502101845 54 341 3.0 10.0 0.00 2.23 0.00 95 1017.0
20260502101345 54 16 2.0 8.0 0.00 2.27 0.00 95 1016.9
20260502100831 54 11 2.0 8.0 0.00 2.27 0.00 95 1016.6
20260502100338 54 359 3.0 8.0 0.00 2.27 0.00 95 1016.3
20260502091500 55 21 3.0 9.0 0.00 2.34 0.00 93 1015.8
20260502090706 55 30 4.0 11.0 0.00 2.35 0.00 93 1015.7
20260502090416 55 23 4.0 11.0 0.00 2.36 0.00 93 1015.5
20260502071515 55 23 5.0 10.0 0.00 2.65 0.00 98 1015.5
20260502071012 55 37 5.0 10.0 0.00 2.67 0.00 98 1015.4
20260502070453 55 33 4.0 10.0 0.00 2.68 0.00 98 1015.5
20260502065947 55 343 5.0 13.0 0.00 2.69 0.00 98 1015.6
20260502065942 55 16 4.0 12.0 0.00 2.68 0.00 98 1015.6
20260502064942 55 41 6.0 14.0 0.00 2.70 0.00 99 1015.3
20260502064937 55 27 6.0 13.0 0.00 2.70 0.00 98 1015.5
20260502064201 55 49 8.0 20.0 0.00 2.71 0.00 99 1015.3
20260502063426 55 25 7.0 20.0 0.00 2.71 0.00 99 1015.2
20260502062923 55 21 6.0 13.0 0.00 2.71 0.00 99 1015.2
20260502062420 55 33 7.0 15.0 0.00 2.72 0.00 99 1015.3
20260502061910 55 41 7.0 15.0 0.00 2.72 0.00 99 1015.3
20260502061650 55 9 8.0 17.0 0.00 2.72 0.00 100 1015.2
20260502061110 55 13 8.0 17.0 0.00 2.72 0.00 100 1015.1
20260502060314 55 359 8.0 17.0 0.00 2.72 0.00 100 1015.1
20260502055748 55 31 6.0 17.0 0.00 2.73 0.00 100 1015.0
20260502055243 55 349 7.0 16.0 0.00 2.74 0.00 100 1015.0
20260502054740 55 4 10.0 19.0 0.00 2.77 0.00 100 1015.1
20260502054238 55 33 9.0 19.0 0.00 2.81 0.00 100 1015.1
20260502054019 55 35 8.0 21.0 0.00 2.94 0.00 100 1015.1
20260502053949 55 58 5.0 19.0 0.00 2.83 0.00 100 1015.1
20260502053903 56 41 5.0 14.0 0.00 2.85 0.00 100 1015.1
20260502053822 56 23 7.0 14.0 0.00 2.90 0.00 100 1015.2
20260502052113 55 35 8.0 21.0 0.00 2.94 0.00 100 1015.1
20260502051818 56 4 9.0 21.0 0.00 2.95 0.00 100 1015.1
20260502051318 56 23 9.0 22.0 0.00 2.96 0.00 100 1015.0
20260502050518 56 22 9.0 22.0 0.00 2.97 0.00 100 1015.0
20260502045952 56 40 8.0 17.0 0.00 2.97 2.97 100 1015.1
20260502045426 56 46 8.0 18.0 0.00 2.97 2.97 100 1015.1
20260502045402 56 12 7.0 18.0 0.00 2.97 2.97 100 1015.2
20260502044332 56 25 7.0 18.0 0.00 2.97 2.97 100 1015.3
20260502043808 56 337 8.0 18.0 0.00 2.97 2.97 100 1015.2
20260502043239 56 25 10.0 21.0 0.00 2.97 2.97 100 1015.2
20260502042738 56 12 9.0 21.0 0.00 2.97 2.97 100 1015.1
20260502042210 56 29 7.0 15.0 0.00 2.97 2.97 100 1015.1
20260502041707 56 354 7.0 15.0 0.00 2.97 2.97 100 1015.1
20260502041139 56 22 7.0 17.0 0.01 2.97 2.97 100 1015.1
20260502040637 56 354 7.0 17.0 0.01 2.97 2.97 100 1015.1
20260502040109 56 23 6.0 14.0 0.01 2.97 2.97 100 1015.1
20260502035607 56 359 6.0 17.0 0.01 2.97 2.97 100 1015.1
20260502035040 56 4 7.0 17.0 0.01 2.97 2.97 100 1014.7
20260502034515 56 33 8.0 14.0 0.01 2.97 2.97 100 1014.7
20260502033948 56 31 8.0 15.0 0.01 2.97 2.97 100 1014.8
20260502033445 56 359 7.0 16.0 0.01 2.97 2.97 100 1014.8
20260502032917 56 31 7.0 16.0 0.01 2.97 2.97 100 1014.6
20260502032415 56 354 5.0 15.0 0.01 2.97 2.97 100 1014.2
20260502031846 56 10 7.0 14.0 0.01 2.97 2.97 100 1014.2
20260502031613 56 354 7.0 14.0 0.01 2.96 2.97 100 1013.8
20260502030839 56 8 8.0 12.0 0.01 2.96 2.96 100 1013.7
20260502030335 56 12 9.0 19.0 0.02 2.96 2.96 100 1013.5
20260502025833 56 37 9.0 19.0 0.03 2.96 2.96 100 1013.5
20260502025306 56 354 9.0 19.0 0.03 2.96 2.96 100 1013.7
20260502025009 57 26 8.0 19.0 0.03 2.96 2.96 100 1013.6
20260502024236 57 8 8.0 17.0 0.03 2.96 2.96 100 1013.4
20260502023710 57 37 7.0 15.0 0.03 2.96 2.96 100 1013.3
20260502023143 57 14 7.0 15.0 0.04 2.96 2.96 100 1013.3
20260502022639 57 10 6.0 15.0 0.04 2.96 2.96 100 1013.3
20260502022137 58 16 6.0 12.0 0.05 2.96 2.96 100 1013.6
20260502021634 58 25 8.0 19.0 0.05 2.95 2.96 100 1013.5
20260502021108 58 14 7.0 19.0 0.06 2.95 2.95 100 1013.3
20260502020610 58 41 5.0 15.0 0.06 2.94 2.94 100 1013.2
20260502020305 58 13 4.0 11.0 0.06 2.94 2.94 100 1013.2
20260502015507 58 8 5.0 11.0 0.05 2.93 2.93 100 1013.3
20260502014947 58 54 6.0 15.0 0.05 2.93 2.93 100 1013.1
20260502014415 58 4 7.0 15.0 0.06 2.93 2.93 100 1012.8
20260502013914 58 16 7.0 15.0 0.06 2.93 2.93 100 1012.6
20260502013412 58 16 6.0 18.0 0.05 2.92 2.92 100 1012.4
20260502012847 58 14 6.0 18.0 0.05 2.92 2.92 100 1012.2
20260502012335 58 27 7.0 18.0 0.06 2.92 2.92 100 1012.2
20260502011835 58 354 6.0 18.0 0.05 2.91 2.91 100 1012.0
20260502011309 58 4 6.0 14.0 0.05 2.89 2.89 100 1012.3
20260502010744 58 359 6.0 15.0 0.05 2.88 2.88 100 1012.6
20260502010228 58 349 6.0 15.0 0.08 2.88 2.88 100 1012.5
20260502005959 59 348 7.0 14.0 0.09 2.88 2.88 100 1012.1
20260502005225 59 359 8.0 15.0 0.11 2.88 2.88 100 1011.7
20260502004724 59 21 8.0 19.0 0.10 2.87 2.88 100 1011.3
20260502004221 59 339 8.0 19.0 0.11 2.87 2.87 100 1011.1
20260502003723 59 354 7.0 16.0 0.11 2.87 2.87 100 1011.1
20260502003203 59 25 6.0 16.0 0.14 2.87 2.87 100 1010.9
20260502002651 59 349 6.0 12.0 0.15 2.87 2.87 100 1011.1
20260502002152 59 33 7.0 15.0 0.15 2.86 2.86 100 1011.3
20260502001656 59 354 7.0 15.0 0.16 2.85 2.85 100 1011.3
20260502001141 59 35 7.0 16.0 0.17 2.84 2.84 100 1011.0
20260502000648 59 4 7.0 16.0 0.18 2.83 2.83 100 1011.0
20260502000137 59 19 7.0 13.0 0.15 2.80 2.80 100 1011.4
20260501235852 59 27 6.0 13.0 0.13 2.78 2.78 100 1011.4
20260501235058 59 18 6.0 14.0 0.12 2.77 2.77 100 1011.2
20260501234556 59 348 8.0 19.0 0.11 2.76 2.76 100 1010.5
20260501234334 59 45 10.0 19.0 0.11 2.76 2.76 100 1009.8
20260501233801 59 48 10.0 21.0 0.10 2.75 2.75 100 1010.0
20260501233028 59 43 8.0 21.0 0.07 2.72 2.73 100 1010.1
20260501232525 59 37 8.0 17.0 0.07 2.72 2.72 100 1010.6
20260501232025 60 27 8.0 17.0 0.06 2.70 2.71 100 1011.0
20260501231511 60 12 8.0 17.0 0.04 2.68 2.69 100 1010.8
20260501231009 60 23 9.0 18.0 0.02 2.66 2.66 100 1010.6
20260501230509 60 338 7.0 18.0 0.03 2.65 2.65 100 1010.4
20260501230008 60 46 7.0 14.0 0.04 2.65 2.65 100 1010.5
20260501225459 60 21 10.0 21.0 0.05 2.65 2.65 100 1010.3
20260501224957 60 45 10.0 21.0 0.07 2.65 2.65 100 1009.8
20260501224454 60 59 9.0 20.0 0.08 2.65 2.65 100 1010.0
20260501223926 60 27 9.0 20.0 0.14 2.65 2.65 100 1010.0
20260501223437 60 345 10.0 23.0 0.25 2.65 2.65 100 1009.8
20260501222856 60 54 10.0 23.0 0.30 2.65 2.65 100 1009.8
20260501222624 61 40 9.0 21.0 0.33 2.64 2.64 100 1009.7
20260501221827 61 43 10.0 21.0 0.34 2.64 2.64 100 1010.1
20260501221554 61 41 9.0 19.0 0.35 2.64 2.64 100 1010.2
20260501220756 61 19 7.0 19.0 0.34 2.63 2.63 100 1010.3
20260501220255 61 12 7.0 16.0 0.32 2.61 2.61 100 1010.5
20260501215726 61 31 7.0 17.0 0.32 2.60 2.61 100 1010.2
20260501215223 61 348 8.0 17.0 0.32 2.59 2.59 100 1010.7
20260501214657 61 21 7.0 17.0 0.32 2.57 2.57 100 1010.2
20260501214404 61 27 5.0 12.0 0.32 2.55 2.55 100 1010.3
20260501213628 61 15 4.0 10.0 0.23 2.46 2.46 100 1010.1
20260501213125 61 37 4.0 17.0 0.16 2.37 2.37 100 1010.5
20260501212558 62 350 4.0 17.0 0.20 2.33 2.33 100 1010.7
20260501212056 62 17 4.0 9.0 0.19 2.30 2.30 100 1010.2
20260501211808 62 35 4.0 12.0 0.20 2.30 2.30 100 1010.0
20260501211025 62 33 5.0 12.0 0.19 2.29 2.29 100 1009.7
20260501210502 62 61 6.0 16.0 0.20 2.29 2.29 100 1008.9
20260501205956 62 48 6.0 17.0 0.19 2.28 2.28 100 1009.0
20260501205453 62 18 8.0 17.0 0.18 2.27 2.27 100 1008.8
20260501205225 62 53 9.0 17.0 0.17 2.26 2.26 100 1008.5
20260501204424 62 35 8.0 17.0 0.18 2.25 2.25 100 1008.8
20260501203927 62 13 7.0 13.0 0.16 2.23 2.23 100 1009.9
20260501203626 62 14 6.0 16.0 0.16 2.22 2.22 100 1010.2
20260501202852 62 62 5.0 16.0 0.13 2.18 2.18 100 1009.9
20260501202348 62 29 5.0 13.0 0.08 2.11 2.11 100 1009.9
20260501201844 62 345 6.0 13.0 0.08 2.11 2.11 100 1009.2
20260501201347 62 359 5.0 13.0 0.07 2.10 2.10 100 1008.8
20260501200814 62 29 7.0 13.0 0.07 2.10 2.10 100 1008.3
20260501200327 62 20 6.0 13.0 0.06 2.09 2.09 100 1008.7
20260501195756 62 10 5.0 13.0 0.06 2.09 2.09 100 1008.9
20260501195254 62 56 5.0 15.0 0.08 2.09 2.09 100 1008.8
20260501194755 62 43 5.0 10.0 0.30 2.08 2.09 100 1008.4
20260501194229 62 42 6.0 14.0 0.47 2.07 2.07 100 1008.7
20260501193727 62 75 5.0 14.0 0.47 2.07 2.07 100 1008.3
20260501193201 62 8 5.0 13.0 0.47 2.06 2.06 100 1008.9
20260501192658 62 60 4.0 10.0 0.48 2.05 2.05 100 1008.3
20260501192154 62 26 4.0 11.0 0.50 2.03 2.03 100 1008.7
20260501191651 62 15 6.0 12.0 0.60 2.03 2.03 100 1009.1